Асубулак

Казахстан     49°32′24″N   82°59′48″E
темп.,
°C
ветер,
м/с
пор.,
м/с
влажн.,
%
обл.,
%
осадки,
мм/ч
давл.,
гПа
погр.,
м
2 марта, вт
вт200:00−8ю3791100 0.9 1022340
03:00−7ю3793100 0.8 1021340
06:00−7ю3794100 2.1 1022330
09:00−6ю3692100 1.8 1021357
12:00−4ю3588100 2.3 1020503
15:00−4ю3590100 0.6 1018463
18:00−6ююв2492100 1.3 1017194
21:00−6ю3592100 0.5 1016236
3 марта, ср
ср300:00−6ююз31392100 1.1 1016564
03:00−7юз41091100 0.1 1018225
06:00−7ююз3493100 0.6 102170
09:00−6юз3687100 0.3 1022477
12:00−6зюз357995 0.4 1023891
15:00−6з357798 0.1 1024897
18:00−13зюз119594 0.1 102721
21:00−15ююз338820 0.0 103020
4 марта, чт
чт400:00−16ю238310 0.0 103120
03:00−16ююв33722 0.0 103120
06:00−16ююв33731 0.0 103320
09:00−12юв33835 0.0 1032114
12:00−7юв35732 0.0 1031563
15:00−6юв35720 0.0 1029511
18:00−12юв33825 0.0 102922
21:00−13ююв447010 0.0 103032
5 марта, пт
пт500:00−13ююв447024 0.0 102837
03:00−13юв447197 0.0 102571
06:00−12юв457298 0.0 102285
09:00−6ююв61275100 0.3 1020522
12:00−5ю91784100 1.1 1021793
15:00−4юз51086100 1.1 1026793
18:00−7зюз2395100 1.9 103286
21:00−11ююз238964 0.1 103521
6 марта, сб
сб600:00−12ююв338332 0.1 103621
03:00−12ююв33890 0.0 103521
06:00−12юв238923 0.0 103421
09:00−8юв34915 0.0 1033179
12:00−4юв48775 0.0 1030687
15:00−3юв49721 0.0 1027664
18:00−9ююв33820 0.0 102722
21:00−10ююв33780 0.0 102722